www.pogodaiklimat.ru
ПОГОДА в Ортонвилле
Время
и дата
18:55 26.10
19:15 26.10
19:35 26.10
19:55 26.10
20:15 26.10
20:35 26.10
20:55 26.10
21:15 26.10
21:35 26.10
21:55 26.10
22:15 26.10
22:38 26.10
22:55 26.10
23:15 26.10
23:35 26.10
23:55 26.10
00:15 27.10
00:35 27.10
00:55 27.10
01:15 27.10
01:35 27.10
01:55 27.10
02:15 27.10
02:35 27.10
02:55 27.10
03:15 27.10
03:35 27.10
03:55 27.10
04:15 27.10
04:35 27.10
04:55 27.10
05:15 27.10
05:35 27.10
05:55 27.10
06:15 27.10
06:36 27.10
06:55 27.10
07:15 27.10
07:35 27.10
07:55 27.10
08:15 27.10
08:35 27.10
08:55 27.10
09:15 27.10
09:35 27.10
09:55 27.10
10:15 27.10
10:35 27.10
Ветер
(напр.,м/с)
Видим. Явления Облачность Т
(С)
Тd
(С)
f
(%)
Тe
(С)
Тes
(С)
Комфортность P
(гПа)
Po
(гПа)
Тmin
(С)
Tmax
(С)
R
(мм)
R24
(мм)
S
(см)
З 1 16 км ясно -7.0 -11.0 73 -11 -11 987.5
ЮЗ 1 16 км ясно -7.0 -11.0 73 -11 -11 987.5
штиль 0 16 км ясно -8.0 -11.0 79 -9 -9 987.5
штиль 0 16 км ясно -8.0 -11.0 79 -9 -9 986.8
ЮЗ 1 16 км ясно -8.0 -12.0 73 -12 -12 986.8
ЮЗ 1 16 км ясно -9.0 -12.0 79 -13 -13 986.8
Ю 1 16 км ясно -9.0 -12.0 79 -13 -13 986.8
Ю 1 16 км ясно -10.0 -12.0 85 -15 -15 986.5
Ю 1 16 км ясно -10.0 -12.0 85 -15 -15 986.5
Ю 1 16 км ясно -10.0 -12.0 85 -15 -15 986.8
Ю 1 16 км ясно -11.0 -12.0 92 -16 -16 986.8
Ю 1 16 км ?/? -2 -2 986.2
Ю 1 2 км ясно -11.0 -12.0 92 -16 -16 985.8
Ю 2 16 км ясно -11.0 -13.0 85 -18 -18 985.5
Ю 2 16 км ясно -11.0 -12.0 92 -18 -18 985.2
Ю 2 16 км ясно -11.0 -12.0 92 -19 -19 985.2
Ю 1 16 км ясно -11.0 985.2
Ю 2 16 км ясно -11.0 -13.0 85 -18 -18 984.9
Ю 2 16 км ясно -11.0 -13.0 85 -18 -18 984.5
Ю 1 16 км ясно -11.0 -13.0 85 -17 -17 984.5
Ю 1 16 км ясно -11.0 -13.0 85 -16 -16 984.9
Ю 1 16 км ясно -12.0 -13.0 92 -17 -17 984.9
ЮВ 1 16 км ясно -12.0 -14.0 85 -17 -17 984.5
ЮВ 1 16 км ясно -12.0 -14.0 85 -18 -18 984.2
Ю 1 16 км ясно -12.0 -14.0 85 -18 -18 983.6
ЮВ 1 16 км ясно -12.0 -14.0 85 -18 -18 983.6
ЮВ 1 16 км ясно -13.0 -14.0 92 -18 -18 982.9
Ю 1 16 км ясно -12.0 -14.0 85 -18 -18 982.9
Ю 1 16 км ясно -13.0 -15.0 85 -19 -19 982.9
Ю 1 16 км ясно -12.0 -14.0 85 -17 -17 982.6
ЮВ 1 16 км ?/? -13.0 -14.0 92 -19 -19 982.3
Ю 1 16 км ясно -12.0 -14.0 85 -18 -18 982.6
Ю 1 16 км ясно -13.0 -15.0 85 -19 -19 982.3
Ю 2 16 км ясно -12.0 -15.0 78 -19 -19 981.9
Ю 2 16 км ясно -12.0 -14.0 85 -20 -20 981.6
Ю 2 0 м ясно -12.0 -14.0 85 -19 -19 981.0
Ю 2 16 км ясно -11.0 -14.0 78 -18 -18 980.6
0 м ясно -11.0 -14.0 78 -11 -11 980.3
Ю 1 16 км ясно -11.0 -14.0 78 -17 -17 980.3
Ю 2 16 км ясно -11.0 -13.0 85 -18 -18 980.3
Ю 1 16 км ясно -9.0 -13.0 73 -15 -15 980.3
ЮЗ 2 16 км ясно -8.0 -12.0 73 -15 -15 980.3
ЮЗ 2 16 км ясно -8.0 -12.0 73 -15 -15 980.0
ЮЗ 1 16 км ясно -7.0 -12.0 67 -12 -11 979.7
ЮЗ 2 16 км ясно -7.0 -11.0 73 -14 -14 979.7
ЮЗ 2 16 км ясно -6.0 -12.0 62 -13 -12 979.3
Ю 2 16 км ясно -5.0 -11.0 63 -12 -10 978.7
Ю 3
{4}
16 км ясно -5.0 -11.0 63 -12 -11 978.7
Местоположение метеостанции Ortonville Muncipal-Martinson Field Airport: широта 45.3056 долгота -96.4244 высота над уровнем моря 335 м.
В архиве по умолчанию представлена погода в Ортонвилле за последние 1-2 суток. Обновление информации о фактической погоде в базе происходит ежечасно! Архивные данные за месяц целиком и за предыдущие месяцы Вы можете получить, выбрав интересующий диапазон дат из раскрывающегося списка и нажав кнопку "Ввод!".
Внимание! Архив погоды МЕТАР в базе сайта по станциям, не включенным в климатический монитор, хранится не более 60 дней. Нет смысла пытаться выбрать более раннюю дату.
*Определитесь, кто Вы:
Внимание! Время в таблицах - местное (без учета летнего времени). Для получения всемирного времени необходимо вычесть поправку, которая равна -6 ч.
Смотрите также архив погоды в соседних городах и на ближайших метеорологических станциях:
Партнеры нашего сайта:      
Пояснения к столбцам:
  • Ветер - указаны скорость ветра в м/с - средняя за 10 мин, порывы в срок и между сроками (в фигурных скобках) и направление, откуда дует ветер: С - северный,
  • СВ - северо-восточный, В - восточный, ЮВ - юго-восточный, Ю - южный, ЮЗ - юго-западный, З - западный, СЗ - северо-западный.
  • Видимость - горизонтальная дальность видимости в метрах или километрах. При видимости от 1 до 10 км при отсутствии осадков обычно наблюдается дымка, при ухудшении видимости до 1 км и менее - туман. В сухую погоду видимость может ухудшаться дымом, пылью или мглою.
  • Явления - указаны атмосферные явления, наблюдавшиеся в срок или в последний час перед сроком; фигурными скобками обозначены явления, наблюдавшиеся между сроками (за 1-3 часа до срока); квадратными скобками обозначены град или гололедные отложения с указанием их диаметра в мм.
  • Облачность - указаны через наклонную черту общая и нижняя облачность в баллах и высота нижней границы облаков в метрах; квадратными скобками обозначены формы облаков: Ci - перистые, Cs - перисто-слоистые, Cc - перисто-кучевые, Ac - высококучевые, As - высокослоистые, Sc - слоисто-кучевые, Ns - слоисто-дождевые, Cu - кучевые, Cb - кучево-дождевые. Подробнее классификацию облаков см. в Атласе облаков (PDF).
  • T - Температура воздуха - температура, измеренная на высоте 2 м над землей.
  • Td - Температура точки росы - температура, при понижении до которой содержащийся в воздухе водяной пар достигнет насыщения.
  • f - Относительная влажность воздуха - влажноcть воздуха, измеренная на высоте 2 м над землей.
  • Te - Эффективная температура - температура, которую ощущает одетый по сезону человек в тени. Характеристика душности погоды. При расчете учитывается влияние влажности воздуха и скорости ветра на теплоощущения человека.
  • Tes - Эффективная температура на солнце - температура, которую ощущает человек, с поправкой на солнечный нагрев. Характеристика знойности погоды. Зависит от высоты солнца над горизонтом, облачности и скорости ветра. Ночью, в пасмурную погоду, а также при ветре 12 м/с и более поправка равна нулю.
  • P - Атмосферное давление - приведенное к уровню моря атмосферное давление.
  • Po - Атмосферное давление - измеренное на уровне метеостанции атмосферное давление.
  • Tmin - Минимальная температура - минимум температуры воздуха на высоте 2 м над землей.
  • Tmax - Максимальная температура - максимум температуры воздуха на высоте 2 м над землей.
  • R - Количество осадков - Количество выпавших осадков за период времени, мм. При наведении курсора мыши на число - период времени, за который выпало указанное количество осадков.
  • R24 - Количество осадков - Количество выпавших осадков за 24 часа, мм.
  • S - Снежный покров - Высота снежного покрова, см. При наведении курсора мыши на число - состояние снежного покрова и степень покрытия местности в баллах.